Change the Weather History Date:

Monday, November 18, 2013

  Actual Average Record
Temperature  
Mean Temperature 50 °F -  
Max Temperature 60 °F 56 °F 69 °F (2001)
Min Temperature 41 °F 42 °F 32 °F (2000)
Degree Days  
Heating Degree Days 14    
Moisture  
Dew Point 45 °F    
Average Humidity 81    
Maximum Humidity 93    
Minimum Humidity 57    
Precipitation  
Precipitation 0.22 in - - ()
Sea Level Pressure  
Sea Level Pressure 30.04 in    
Wind  
Wind Speed 6 mph (SE)    
Max Wind Speed 16 mph    
Max Gust Speed 23 mph    
Visibility 10 miles    
Events Rain    
Averages and records for this station are not official NWS values.
T = Trace of Precipitation, MM = Missing Value Source: NWS Daily Summary

Daily Weather History Graph

Daily Weather History Graph

Search for Another Location

Airport or City:

Trip Planner

Search our weather history database for the weather conditions in past years. The results will help you decide how hot, cold, wet, or windy it might be!

Date:

Astronomy

Nov. 18, 2013 Rise Set
Actual Time 7:07 AM PST 4:55 PM PST
Civil Twilight 6:38 AM PST 5:24 PM PST
Nautical Twilight 6:04 AM PST 5:58 PM PST
Astronomical Twilight 5:31 AM PST 6:30 PM PST
Moon 6:01 PM PST (11/18) 8:01 AM PST (11/18)
Length of Visible Light 10h 46m
Length of Day
9h 47m
Full, 99% of the Moon is Illuminated
Nov 18
Full
Nov 25
Last Quarter
Dec 2
New
Dec 9
First Quarter
Dec 17
Full

Hourly Weather History & Observations

Time (PST) Temp. Windchill Dew Point Humidity Pressure Visibility Wind Dir Wind Speed Gust Speed Precip Events Conditions
12:53 AM 41.0 °F 39.0 °F 39.0 °F 93% 30.10 in 10.0 mi East 3.5 mph - N/A   Clear
1:53 AM 43.0 °F 40.3 °F 39.9 °F 89% 30.10 in 10.0 mi SE 4.6 mph - N/A   Clear
2:53 AM 42.1 °F 40.2 °F 39.0 °F 89% 30.10 in 10.0 mi East 3.5 mph - N/A   Clear
3:53 AM 42.1 °F 40.2 °F 39.9 °F 92% 30.08 in 10.0 mi East 3.5 mph - N/A   Clear
4:53 AM 44.1 °F 41.5 °F 41.0 °F 89% 30.06 in 10.0 mi ESE 4.6 mph - N/A   Clear
5:53 AM 46.0 °F 43.1 °F 42.1 °F 86% 30.06 in 10.0 mi East 5.8 mph - N/A   Clear
6:53 AM 44.1 °F 40.8 °F 41.0 °F 89% 30.06 in 10.0 mi East 5.8 mph - N/A   Scattered Clouds
7:53 AM 45.0 °F 42.6 °F 42.1 °F 90% 30.07 in 7.0 mi East 4.6 mph - N/A   Clear
8:53 AM 48.0 °F - 44.1 °F 86% 30.08 in 10.0 mi East 4.6 mph - N/A   Clear
9:53 AM 50.0 °F - 46.0 °F 86% 30.09 in 10.0 mi East 4.6 mph - N/A   Clear
10:53 AM 54.0 °F - 46.0 °F 75% 30.08 in 10.0 mi South 6.9 mph - N/A   Clear
11:53 AM 57.9 °F - 45.0 °F 62% 30.07 in 10.0 mi SSE 12.7 mph - N/A   Clear
12:53 PM 59.0 °F - 45.0 °F 60% 30.05 in 10.0 mi South 16.1 mph 23.0 mph N/A   Overcast
1:53 PM 60.1 °F - 45.0 °F 57% 30.03 in 10.0 mi South 11.5 mph - N/A   Mostly Cloudy
2:53 PM 57.9 °F - 45.0 °F 62% 30.03 in 10.0 mi South 13.8 mph - N/A   Overcast
3:53 PM 55.9 °F - 46.9 °F 72% 30.01 in 10.0 mi SE 3.5 mph - 0.00 in   Overcast
4:53 PM 55.0 °F - 46.0 °F 72% 30.01 in 10.0 mi SSE 6.9 mph - 0.00 in Rain Light Rain
5:53 PM 54.0 °F - 46.9 °F 77% 30.00 in 10.0 mi SSE 5.8 mph - 0.00 in   Overcast
6:53 PM 53.1 °F - 48.0 °F 83% 29.99 in 10.0 mi South 5.8 mph - 0.02 in Rain Light Rain
7:53 PM 52.0 °F - 48.9 °F 89% 30.00 in 6.0 mi SSE 4.6 mph - 0.05 in Rain Light Rain
8:53 PM 53.1 °F - 48.9 °F 86% 30.00 in 7.0 mi SE 5.8 mph - 0.07 in Rain Light Rain
9:53 PM 54.0 °F - 48.9 °F 83% 29.98 in 10.0 mi SE 9.2 mph - 0.05 in Rain Light Rain
10:53 PM 54.0 °F - 48.9 °F 83% 29.97 in 10.0 mi SE 11.5 mph - 0.03 in   Overcast
11:53 PM 54.0 °F - 50.0 °F 86% 29.97 in 8.0 mi South 6.9 mph - 0.00 in Rain Light Rain